Location: Ferintosh
(52.7647°N, 112.9692°W)
Time: 14:55:37
(UTC+00:00)

Transit 2A - Pass Details

Date: 22 May 2024
Orbit: 592 x 959 km, 66.7° (Epoch: 23 June)

Event Time Altitude Azimuth Distance (km) Brightness Sun altitude
Rises 08:11:00 0° 252° (WSW) 3,004 - -16.1°
Exits shadow 08:11:45 - 254° (WSW) 2,729 8.6 -16.1°
Reaches altitude 10° 08:13:24 10° 261° (W) 2,145 8.1 -16.1°
Maximum altitude 08:17:52 35° 327° (NNW) 1,193 7.4 -15.9°
Drops below altitude 10° 08:22:49 10° 33° (NNE) 2,376 9.7 -15.8°
Sets 08:25:36 0° 42° (NE) 3,376 10.5 -15.7°
